Location: Dreilärchen
(47.9312°N, 8.6113°E)
Time: 19:36:56
(UTC+00:00)

Meteor 2-10 Rocket - Pass Details

Date: 26 May 2022
Orbit: 733 x 885 km, 81.2° (Epoch: 02 July)

Event Time Altitude Azimuth Distance (km) Brightness Sun altitude
Rises 00:30:14 0° 348° (NNW) 3,467 7.9 -19.3°
Reaches altitude 10° 00:32:43 10° 348° (NNW) 2,509 7.1 -19.2°
Maximum altitude 00:38:26 89° 268° (W) 845 3.6 -18.9°
Enters shadow 00:41:18 30° 171° (S) 1,448 4.4 -18.8°
